TimeMDT,TemperatureF,Dew PointF,Humidity,Sea Level PressureIn,VisibilityMPH,Wind Direction,Wind SpeedMPH,Gust SpeedMPH,PrecipitationIn,Events,Conditions,WindDirDegrees,DateUTC
12:56 AM,14.0,9.0,80,30.33,-9999.0,NNE,20.7,27.6,N/A,,Unknown,20,2013-04-09 06:56:00
1:56 AM,12.9,9.0,84,30.32,-9999.0,NNE,24.2,29.9,N/A,,Unknown,20,2013-04-09 07:56:00
2:56 AM,12.9,8.1,81,30.35,-9999.0,North,17.3,-,N/A,,Unknown,10,2013-04-09 08:56:00
3:56 AM,12.9,7.0,77,30.37,-9999.0,North,16.1,26.5,N/A,,Unknown,360,2013-04-09 09:56:00
4:56 AM,12.9,7.0,77,30.40,-9999.0,North,11.5,-,N/A,,Unknown,350,2013-04-09 10:56:00
5:56 AM,12.0,7.0,80,30.40,-9999.0,North,13.8,-,N/A,,Unknown,350,2013-04-09 11:56:00
6:56 AM,12.0,7.0,80,30.44,-9999.0,NNW,13.8,-,N/A,,Unknown,340,2013-04-09 12:56:00
7:56 AM,12.0,7.0,80,30.46,-9999.0,NNW,13.8,-,N/A,,Unknown,340,2013-04-09 13:56:00
8:56 AM,12.0,7.0,80,30.45,-9999.0,NNW,16.1,-,N/A,,Unknown,340,2013-04-09 14:56:00
9:56 AM,12.9,7.0,77,30.46,-9999.0,North,18.4,-,N/A,,Unknown,350,2013-04-09 15:56:00
10:56 AM,15.1,8.1,74,30.47,-9999.0,NNW,17.3,-,N/A,,Unknown,330,2013-04-09 16:56:00
11:56 AM,16.0,9.0,74,30.45,-9999.0,NNW,18.4,-,N/A,,Unknown,340,2013-04-09 17:56:00
12:56 PM,17.1,10.0,74,30.44,-9999.0,NNW,19.6,-,N/A,,Unknown,340,2013-04-09 18:56:00
1:56 PM,18.0,10.0,71,30.45,-9999.0,NNW,19.6,-,N/A,,Unknown,330,2013-04-09 19:56:00
2:56 PM,19.9,10.9,68,30.42,-9999.0,North,20.7,-,N/A,,Unknown,350,2013-04-09 20:56:00
3:56 PM,19.9,10.9,68,30.41,-9999.0,North,19.6,-,N/A,,Unknown,350,2013-04-09 21:56:00
4:56 PM,19.9,10.0,65,30.40,-9999.0,North,19.6,-,N/A,,Unknown,350,2013-04-09 22:56:00
5:56 PM,19.0,10.9,71,30.42,-9999.0,North,18.4,-,N/A,,Unknown,350,2013-04-09 23:56:00
6:56 PM,19.9,12.0,71,30.43,-9999.0,NNW,17.3,-,N/A,,Unknown,340,2013-04-10 00:56:00
7:56 PM,19.9,14.0,78,30.43,-9999.0,NNW,16.1,-,N/A,,Unknown,330,2013-04-10 01:56:00
8:56 PM,19.9,15.1,81,30.43,-9999.0,NNW,13.8,-,N/A,,Unknown,330,2013-04-10 02:56:00
9:56 PM,21.0,15.1,78,30.43,-9999.0,NW,11.5,-,N/A,,Unknown,310,2013-04-10 03:56:00
10:56 PM,21.0,16.0,81,30.40,-9999.0,NW,11.5,-,N/A,,Unknown,320,2013-04-10 04:56:00
11:56 PM,21.9,17.1,82,30.38,-9999.0,NNW,11.5,-,N/A,,Unknown,340,2013-04-10 05:56:00